DW5083 Sainville FR current weather conditions

sailwx.info

Wind from 360 at 6 knots gusting 16

Air temperature 24.4° C
Dewpoint 17.2° C

Last reported at 2019-Jun-19 12:05 UTC.
Time now 2019-Jun-19 12:45 UTC

Location: N 48°24' E 001°54'.
View on Google Maps.

See reports from other nearby stations

  
Tides and Currents Weather Stations Pressure Air Temp Water Temp Dewpoint Dewpoint Depression Visibility Wind Speed Wind Dir Waves Ship Positions
date/time (UTC)wind fromknots sea level pressurealtimeterstation pressurevisibilityair tempwater tempwave heightnotes
2019-Jun-19 12:05 360 6 gusting 16 24.4
2019-Jun-19 11:55 360 3 gusting 11 23.9
2019-Jun-19 11:50 189 5 gusting 11 23.9
2019-Jun-19 11:40 257 6 gusting 15 23.9
2019-Jun-19 11:35 360 9 gusting 15 23.9
2019-Jun-19 11:30 360 7 gusting 15 23.9
2019-Jun-19 11:25 282 7 gusting 15 24.4
2019-Jun-19 11:20 283 4 gusting 16 24.4
2019-Jun-19 11:15 286 8 gusting 16 24.4
2019-Jun-19 11:10 360 6 gusting 16 24.4
2019-Jun-19 11:05 274 6 gusting 15 25.0
2019-Jun-19 10:55 360 5 gusting 15 24.4
2019-Jun-19 10:50 280 10 gusting 17 23.9
2019-Jun-19 10:40 360 8 gusting 17 25.6
2019-Jun-19 10:35 269 10 gusting 19 25.6
2019-Jun-19 10:25 360 11 gusting 19 25.0
2019-Jun-19 10:17 360 7 gusting 13 25.0
2019-Jun-19 10:10 281 5 gusting 15 25.0
2019-Jun-19 10:05 360 6 gusting 15 25.0
2019-Jun-19 10:01 360 9 gusting 15 24.4
2019-Jun-19 09:56 360 6 gusting 14 23.9
2019-Jun-19 09:51 360 4 gusting 13 23.9
2019-Jun-19 09:47 259 6 gusting 13 23.9
2019-Jun-19 09:40 248 6 gusting 15 23.9
2019-Jun-19 09:35 360 7 gusting 15 24.4
2019-Jun-19 09:31 360 5 gusting 10 23.9
2019-Jun-19 09:25 360 6 gusting 12 23.3
2019-Jun-19 09:20 360 6 gusting 12 22.8
2019-Jun-19 09:16 360 4 gusting 9 22.8
2019-Jun-19 09:10 257 4 gusting 12 22.2
2019-Jun-19 09:05 360 5 gusting 12 22.2
2019-Jun-19 09:01 244 5 gusting 13 22.2
2019-Jun-19 08:55 244 6 gusting 13 22.2
2019-Jun-19 08:50 360 4 gusting 13 21.7
2019-Jun-19 08:46 360 5 gusting 11 21.7
2019-Jun-19 08:40 360 3 gusting 9 21.7
2019-Jun-19 08:35 360 4 gusting 10 21.7
2019-Jun-19 08:31 198 5 gusting 10 21.7
2019-Jun-19 08:25 360 5 gusting 12 22.2
2019-Jun-19 08:20 360 7 gusting 13 22.2
2019-Jun-19 08:16 360 9 gusting 13 22.2
2019-Jun-19 08:10 258 8 gusting 14 22.2
2019-Jun-19 08:05 360 9 gusting 14 22.8
2019-Jun-19 08:01 360 10 gusting 14 23.3
2019-Jun-19 07:55 360 7 gusting 13 23.9
2019-Jun-19 07:50 244 9 gusting 15 24.4
2019-Jun-19 07:46 360 6 gusting 15 24.4
2019-Jun-19 07:40 360 7 gusting 12 23.9
2019-Jun-19 07:35 360 4 gusting 11 23.9
2019-Jun-19 07:31 360 1 gusting 8 23.3
2019-Jun-19 07:25 360 0 gusting 12 23.3
2019-Jun-19 07:20 360 3 gusting 12 23.3
2019-Jun-19 07:16 360 5 gusting 10 22.8
2019-Jun-19 07:10 360 3 gusting 9 22.2
2019-Jun-19 07:05 360 3 gusting 9 22.2
2019-Jun-19 07:01 360 4 gusting 9 22.2
2019-Jun-19 06:55 360 0 gusting 5 21.7
2019-Jun-19 06:50 360 21.1
2019-Jun-19 06:45 360 20.0
2019-Jun-19 06:40 360 5 gusting 8 19.4
2019-Jun-19 06:35 244 6 gusting 8 19.4
2019-Jun-19 06:30 360 2 gusting 6 18.9
2019-Jun-19 06:25 360 2 gusting 5 18.3
2019-Jun-19 06:20 254 0 gusting 4 18.3
2019-Jun-19 06:15 360 0 gusting 5 17.8
2019-Jun-19 06:10 360 2 gusting 6 17.8
2019-Jun-19 06:05 250 17.8
2019-Jun-19 05:55 360 17.8
2019-Jun-19 05:50 257 17.8
2019-Jun-19 05:40 360 1 gusting 10 17.8
2019-Jun-19 05:35 252 5 gusting 10 17.8
2019-Jun-19 05:25 265 4 gusting 8 17.8
2019-Jun-19 05:20 360 4 gusting 10 17.8
2019-Jun-19 05:10 360 6 gusting 15 17.8
2019-Jun-19 05:05 360 7 gusting 19 18.3
2019-Jun-19 04:55 360 9 gusting 19 18.3
2019-Jun-19 04:50 198 14 gusting 19 18.3
2019-Jun-19 04:45 235 13 gusting 18 18.3
2019-Jun-19 04:40 360 6 gusting 14 18.9
2019-Jun-19 04:35 360 6 gusting 16 18.9
2019-Jun-19 04:25 360 3 gusting 14 19.4
2019-Jun-19 04:20 360 9 gusting 15 19.4
2019-Jun-19 04:10 360 10 gusting 17 19.4
2019-Jun-19 04:05 360 12 gusting 19 19.4
2019-Jun-19 04:00 360 12 gusting 19 19.4
2019-Jun-19 03:55 360 11 gusting 18 19.4
2019-Jun-19 03:50 360 13 gusting 19 19.4
2019-Jun-19 03:41 360 11 gusting 16 19.4
2019-Jun-19 03:35 360 10 gusting 15 18.9
2019-Jun-19 03:31 360 6 gusting 15 18.9
2019-Jun-19 03:26 360 5 gusting 17 18.9
2019-Jun-19 03:20 360 12 gusting 18 18.3
2019-Jun-19 03:18 360 8 gusting 16 18.3
2019-Jun-19 03:10 360 1 gusting 13 18.3
2019-Jun-19 03:05 360 5 gusting 13 18.3
2019-Jun-19 03:02 360 18.3
2019-Jun-19 02:55 360 18.3
2019-Jun-19 02:50 360 5 gusting 9 17.8
2019-Jun-19 02:48 360 4 gusting 12 17.8
2019-Jun-19 02:40 360 6 gusting 12 17.8
2019-Jun-19 02:35 360 17.8
2019-Jun-19 02:32 360 4 gusting 8 17.8
2019-Jun-19 02:25 360 3 gusting 10 17.8
2019-Jun-19 02:21 360 3 gusting 10 17.8
2019-Jun-19 02:17 360 4 gusting 9 17.8
2019-Jun-19 02:10 360 4 gusting 9 17.8
2019-Jun-19 02:06 360 4 gusting 8 17.2
2019-Jun-19 02:02 360 3 gusting 7 17.2
2019-Jun-19 01:56 360 2 gusting 7 17.2
2019-Jun-19 01:50 360 17.2
2019-Jun-19 01:47 360 1 gusting 7 16.7
2019-Jun-19 01:41 360 1 gusting 7 16.7
2019-Jun-19 01:35 360 1 gusting 5 16.1
2019-Jun-19 01:31 167 16.1
2019-Jun-19 01:25 167 16.1
2019-Jun-19 01:20 167 16.1
2019-Jun-19 01:11 177 16.7
2019-Jun-19 01:05 177 16.7
2019-Jun-19 01:01 177 16.7
2019-Jun-19 00:55 177 16.7
2019-Jun-19 00:50 177 1 gusting 4 16.7
2019-Jun-19 00:46 173 2 gusting 4 16.7
2019-Jun-19 00:40 178 0 gusting 3 17.2
2019-Jun-19 00:35 178 17.2
2019-Jun-19 00:31 178 17.2
2019-Jun-19 00:25 170 17.2
2019-Jun-19 00:20 177 17.8
2019-Jun-19 00:17 177 17.8
2019-Jun-19 00:10 157 0 gusting 6 17.8
2019-Jun-19 00:05 175 1 gusting 4 17.8
2019-Jun-19 00:01 151 2 gusting 4 17.8
2019-Jun-18 23:55 135 17.8
2019-Jun-18 23:50 132 18.3
2019-Jun-18 23:46 129 3 gusting 6 18.3
2019-Jun-18 23:40 113 3 gusting 6 18.3
2019-Jun-18 23:35 109 18.3
2019-Jun-18 23:31 124 18.3
2019-Jun-18 23:25 112 18.3
2019-Jun-18 23:20 115 1 gusting 3 18.3
2019-Jun-18 23:16 110 1 gusting 3 18.9
2019-Jun-18 23:10 115 18.9
2019-Jun-18 23:05 107 18.9
2019-Jun-18 23:01 101 0 gusting 3 18.9
2019-Jun-18 22:55 105 18.9
2019-Jun-18 22:50 103 0 gusting 3 18.9
2019-Jun-18 22:46 098 1 gusting 3 18.9
2019-Jun-18 22:40 096 18.9
2019-Jun-18 22:35 100 18.9
2019-Jun-18 22:30 100 18.9
2019-Jun-18 22:25 101 18.9
2019-Jun-18 22:20 097 0 gusting 2 19.4
2019-Jun-18 22:16 098 19.4
2019-Jun-18 22:10 098 19.4
2019-Jun-18 22:05 098 19.4
2019-Jun-18 22:01 098 19.4
2019-Jun-18 21:55 098 19.4
2019-Jun-18 21:50 098 20.0
2019-Jun-18 21:45 101 20.0
2019-Jun-18 21:40 101 20.0
2019-Jun-18 21:10 108 20.6
2019-Jun-18 21:05 108 20.6
2019-Jun-18 21:01 108 20.6
2019-Jun-18 20:55 108 20.6
2019-Jun-18 20:50 108 20.6
2019-Jun-18 20:45 109 21.1
2019-Jun-18 20:40 109 21.1
2019-Jun-18 20:35 109 21.1
2019-Jun-18 20:30 109 21.1
2019-Jun-18 20:25 109 21.1
2019-Jun-18 20:20 111 21.1
2019-Jun-18 20:16 115 21.7
2019-Jun-18 20:10 115 21.7
2019-Jun-18 20:05 115 21.7
2019-Jun-18 20:00 115 21.7
2019-Jun-18 19:55 115 21.7
2019-Jun-18 19:50 115 21.7
2019-Jun-18 19:45 116 22.2
2019-Jun-18 19:40 115 22.2
2019-Jun-18 19:35 118 22.8
2019-Jun-18 19:25 117 22.8
2019-Jun-18 19:20 113 23.3
2019-Jun-18 19:10 115 23.9
2019-Jun-18 19:05 113 23.9
2019-Jun-18 18:55 113 24.4
2019-Jun-18 18:50 113 25.0
2019-Jun-18 18:40 112 25.0
2019-Jun-18 18:35 115 25.6
2019-Jun-18 18:25 109 25.6
2019-Jun-18 18:20 108 26.1
2019-Jun-18 18:10 126 25.6
2019-Jun-18 18:05 121 25.6
2019-Jun-18 17:55 112 1 gusting 6 26.7
2019-Jun-18 17:50 119 0 gusting 6 27.2
2019-Jun-18 17:45 126 0 gusting 5 27.2
2019-Jun-18 17:40 094 0 gusting 5 27.2
2019-Jun-18 17:35 104 0 gusting 6 27.2
2019-Jun-18 17:25 111 0 gusting 5 26.7
2019-Jun-18 17:20 117 26.7
2019-Jun-18 17:15 115 1 gusting 6 27.2
2019-Jun-18 17:10 107 1 gusting 8 27.8
2019-Jun-18 17:05 103 2 gusting 9 27.8
2019-Jun-18 17:00 119 5 gusting 9 27.8
2019-Jun-18 16:55 105 3 gusting 8 28.3
2019-Jun-18 16:50 110 4 gusting 9 28.3
2019-Jun-18 16:45 098 5 gusting 10 28.3
2019-Jun-18 16:40 109 6 gusting 10 28.3
2019-Jun-18 16:35 109 5 gusting 11 28.3
2019-Jun-18 16:26 106 2 gusting 7 27.8
2019-Jun-18 16:21 117 3 gusting 7 27.2
2019-Jun-18 16:16 111 3 gusting 9 27.8
2019-Jun-18 16:11 105 4 gusting 9 28.9
2019-Jun-18 16:06 119 5 gusting 10 28.9
2019-Jun-18 16:01 105 6 gusting 10 28.3
2019-Jun-18 15:56 130 3 gusting 10 27.8
2019-Jun-18 15:50 134 6 gusting 10 28.3
2019-Jun-18 15:47 105 5 gusting 9 28.9
2019-Jun-18 15:41 113 5 gusting 9 28.3
2019-Jun-18 15:36 103 6 gusting 11 27.8
2019-Jun-18 15:31 115 6 gusting 11 27.8
2019-Jun-18 15:25 110 6 gusting 11 28.3
2019-Jun-18 15:20 119 6 gusting 12 28.9
2019-Jun-18 15:16 108 5 gusting 12 28.9
2019-Jun-18 15:10 098 3 gusting 7 28.9
2019-Jun-18 15:05 112 2 gusting 7 28.3
2019-Jun-18 15:01 105 1 gusting 7 26.7
2019-Jun-18 14:55 100 1 gusting 8 26.1
2019-Jun-18 14:50 093 4 gusting 9 26.7
2019-Jun-18 14:46 098 5 gusting 10 27.8
2019-Jun-18 14:41 114 6 gusting 10 28.3
2019-Jun-18 14:35 119 6 gusting 10 28.9
2019-Jun-18 14:32 111 6 gusting 10 28.9
2019-Jun-18 14:25 111 6 gusting 10 28.9
2019-Jun-18 14:20 117 6 gusting 12 29.4
2019-Jun-18 14:16 109 6 gusting 12 28.9
2019-Jun-18 14:10 126 6 gusting 11 28.9
2019-Jun-18 14:05 110 6 gusting 11 28.3
2019-Jun-18 14:01 101 6 gusting 11 28.3
2019-Jun-18 13:55 109 6 gusting 12 28.3
2019-Jun-18 13:50 097 6 gusting 12 28.3
2019-Jun-18 13:46 085 3 gusting 10 27.8
2019-Jun-18 13:40 103 2 gusting 10 28.3
2019-Jun-18 13:35 112 5 gusting 11 28.3
2019-Jun-18 13:30 117 1 gusting 11 27.8
2019-Jun-18 13:25 103 5 gusting 9 26.7
2019-Jun-18 13:20 109 4 gusting 11 26.7
2019-Jun-18 13:17 108 5 gusting 13 27.2
2019-Jun-18 13:10 117 7 gusting 13 27.8
2019-Jun-18 13:05 111 7 gusting 13 27.2
2019-Jun-18 13:01 101 4 gusting 10 27.2
2019-Jun-18 12:55 105 6 gusting 13 27.2
2019-Jun-18 12:50 113 6 gusting 13 27.2
2019-Jun-18 12:46 097 6 gusting 11 27.2
2019-Jun-18 12:40 104 4 gusting 10 27.8
2019-Jun-18 12:35 113 5 gusting 10 27.2
2019-Jun-18 12:30 107 6 gusting 10 26.7
2019-Jun-18 12:25 101 6 gusting 12 26.7
2019-Jun-18 12:20 113 6 gusting 10 27.8
2019-Jun-18 12:15 111 2 gusting 10 27.8
2019-Jun-18 12:10 107 6 gusting 11 27.2
2019-Jun-18 12:05 081 3 gusting 11 27.2
2019-Jun-18 12:00 117 5 gusting 9 27.8
2019-Jun-18 11:55 135 2 gusting 8 27.8
2019-Jun-18 11:50 098 3 gusting 7 26.7
2019-Jun-18 11:45 107 1 gusting 6 25.6
2019-Jun-18 11:40 116 2 gusting 6 25.0
2019-Jun-18 11:35 095 0 gusting 6 25.0
2019-Jun-18 11:30 125 1 gusting 6 25.0
2019-Jun-18 11:25 113 0 gusting 7 25.6
2019-Jun-18 11:20 095 1 gusting 7 26.1
2019-Jun-18 11:15 118 1 gusting 6 26.7
2019-Jun-18 11:10 128 2 gusting 8 26.7
2019-Jun-18 11:05 099 5 gusting 8 26.7
2019-Jun-18 11:00 117 3 gusting 9 26.1
2019-Jun-18 10:55 085 2 gusting 11 26.1
2019-Jun-18 10:50 083 4 gusting 9 26.1
2019-Jun-18 10:46 081 2 gusting 9 27.2
2019-Jun-18 10:40 102 2 gusting 9 27.2
2019-Jun-18 10:35 115 5 gusting 9 27.2
2019-Jun-18 10:30 108 4 gusting 9 26.1
2019-Jun-18 10:25 069 2 gusting 9 25.6
2019-Jun-18 10:20 101 1 gusting 8 25.6
2019-Jun-18 10:16 096 3 gusting 8 25.6
2019-Jun-18 10:10 107 5 gusting 9 25.6
2019-Jun-18 10:05 088 5 gusting 9 26.1
2019-Jun-18 10:00 085 1 gusting 7 26.1
2019-Jun-18 09:55 082 3 gusting 8 25.6
2019-Jun-18 09:50 080 3 gusting 8 25.6
2019-Jun-18 09:40 092 3 gusting 7 25.0
2019-Jun-18 09:35 102 2 gusting 7 25.0
2019-Jun-18 09:30 108 2 gusting 8 24.4
2019-Jun-18 09:25 095 3 gusting 8 24.4
2019-Jun-18 09:20 092 3 gusting 7 24.4
2019-Jun-18 09:15 098 3 gusting 6 24.4
2019-Jun-18 09:10 085 3 gusting 6 23.9
2019-Jun-18 09:05 088 3 gusting 6 23.3
2019-Jun-18 08:56 098 1 gusting 5 23.3
2019-Jun-18 08:50 105 1 gusting 6 22.8
2019-Jun-18 08:46 093 2 gusting 6 22.8
2019-Jun-18 08:40 094 0 gusting 6 22.2
2019-Jun-18 08:35 090 2 gusting 5 22.2
2019-Jun-18 08:32 090 2 gusting 6 21.7
2019-Jun-18 08:25 105 2 gusting 6 21.7
2019-Jun-18 08:20 084 2 gusting 6 21.7
2019-Jun-18 08:16 102 21.1
2019-Jun-18 08:10 102 1 gusting 5 20.6
2019-Jun-18 08:05 091 0 gusting 3 20.6
2019-Jun-18 08:01 094 20.6
2019-Jun-18 07:55 089 2 gusting 4 20.6
2019-Jun-18 07:50 087 1 gusting 5 20.6
2019-Jun-18 07:46 094 1 gusting 5 21.1
2019-Jun-18 07:40 084 0 gusting 5 20.6
2019-Jun-18 07:35 082 1 gusting 4 20.0
2019-Jun-18 07:31 084 2 gusting 6 20.0
2019-Jun-18 07:25 084 1 gusting 6 19.4
2019-Jun-18 07:20 080 0 gusting 5 19.4
2019-Jun-18 07:16 076 0 gusting 5 19.4
2019-Jun-18 07:10 083 1 gusting 5 18.9
2019-Jun-18 07:05 086 2 gusting 5 18.9
2019-Jun-18 07:01 080 1 gusting 5 18.9
2019-Jun-18 06:55 085 1 gusting 3 18.3
2019-Jun-18 06:50 075 0 gusting 3 18.3
2019-Jun-18 06:46 083 2 gusting 3 17.8
2019-Jun-18 06:40 088 0 gusting 4 17.8
2019-Jun-18 06:35 068 0 gusting 6 17.8
2019-Jun-18 06:31 086 2 gusting 6 17.8
2019-Jun-18 06:25 083 1 gusting 5 17.8
2019-Jun-18 06:20 079 1 gusting 5 17.8
2019-Jun-18 06:16 084 1 gusting 4 17.2
2019-Jun-18 06:10 076 1 gusting 3 17.2
2019-Jun-18 06:05 082 0 gusting 4 16.7
2019-Jun-18 06:01 082 1 gusting 5 16.7
2019-Jun-18 05:55 073 2 gusting 5 16.1
2019-Jun-18 05:50 055 2 gusting 5 15.6
2019-Jun-18 05:46 071 2 gusting 4 15.6
2019-Jun-18 05:40 074 1 gusting 3 15.6
2019-Jun-18 05:35 078 1 gusting 3 15.0
2019-Jun-18 05:30 067 1 gusting 3 15.0
2019-Jun-18 05:25 069 1 gusting 3 15.0
2019-Jun-18 05:20 064 0 gusting 2 15.0
2019-Jun-18 05:15 038 15.0
2019-Jun-18 05:10 037 15.0
2019-Jun-18 05:05 035 15.0
2019-Jun-18 04:55 030 14.4
2019-Jun-18 04:50 030 0 gusting 3 14.4
2019-Jun-18 04:40 040 14.4
2019-Jun-18 04:35 062 14.4
2019-Jun-18 04:30 065 0 gusting 3 13.9
2019-Jun-18 04:25 060 0 gusting 3 13.9
2019-Jun-18 04:20 071 0 gusting 3 13.9
2019-Jun-18 04:15 071 1 gusting 3 13.9
2019-Jun-18 04:10 065 0 gusting 3 13.9
2019-Jun-18 04:05 051 1 gusting 3 13.9
2019-Jun-18 03:55 039 13.9
2019-Jun-18 03:50 051 13.9
2019-Jun-18 03:40 040 0 gusting 4 13.9
2019-Jun-18 03:35 038 0 gusting 4 14.4
2019-Jun-18 03:30 019 2 gusting 4 14.4
2019-Jun-18 03:21 013 0 gusting 3 14.4
2019-Jun-18 03:18 355 1 gusting 4 14.4
2019-Jun-18 03:11 019 1 gusting 4 14.4
2019-Jun-18 03:06 022 1 gusting 3 14.4
2019-Jun-18 03:01 355 0 gusting 3 14.4
2019-Jun-18 02:55 010 0 gusting 3 14.4
2019-Jun-18 02:50 348 1 gusting 4 14.4
2019-Jun-18 02:46 346 2 gusting 4 14.4
2019-Jun-18 02:40 340 1 gusting 4 15.0
2019-Jun-18 02:35 339 1 gusting 4 15.0
2019-Jun-18 02:32 338 3 gusting 4 15.0
2019-Jun-18 02:26 343 1 gusting 5 15.0
2019-Jun-18 02:20 343 1 gusting 5 15.0
2019-Jun-18 02:17 339 1 gusting 4 15.0
2019-Jun-18 02:10 346 2 gusting 4 15.0
2019-Jun-18 02:06 065 15.0
2019-Jun-18 02:01 065 15.0
2019-Jun-18 01:56 065 15.0
2019-Jun-18 01:50 064 15.0
2019-Jun-18 01:47 061 15.0
2019-Jun-18 01:40 055 15.0
2019-Jun-18 01:35 063 15.0
2019-Jun-18 01:31 061 15.0
2019-Jun-18 01:25 061 15.0
2019-Jun-18 01:20 061 0 gusting 2 15.0
2019-Jun-18 01:17 063 15.0
2019-Jun-18 01:10 063 15.0
2019-Jun-18 01:05 069 15.0
2019-Jun-18 01:01 070 15.0
2019-Jun-18 00:55 071 15.6
2019-Jun-18 00:50 070 0 gusting 3 15.6
2019-Jun-18 00:46 067 1 gusting 3 15.6
2019-Jun-18 00:40 071 0 gusting 2 15.6
2019-Jun-18 00:35 071 0 gusting 2 15.6
2019-Jun-18 00:31 069 0 gusting 2 15.6
2019-Jun-18 00:25 057 15.6
2019-Jun-18 00:20 065 16.1
2019-Jun-18 00:16 069 0 gusting 2 16.1
2019-Jun-18 00:10 071 16.1
2019-Jun-18 00:05 071 0 gusting 2 16.1
2019-Jun-18 00:01 067 0 gusting 2 16.1
2019-Jun-17 23:55 067 16.1
2019-Jun-17 23:50 066 16.1
2019-Jun-17 23:47 067 1 gusting 2 16.1
2019-Jun-17 23:40 067 16.1
2019-Jun-17 23:35 066 16.7
2019-Jun-17 23:31 064 16.7
2019-Jun-17 23:25 069 0 gusting 2 16.7
2019-Jun-17 23:20 077 16.7
2019-Jun-17 23:15 077 16.7
2019-Jun-17 23:10 077 16.7
2019-Jun-17 23:05 080 16.7
2019-Jun-17 23:01 080 16.7
2019-Jun-17 22:55 080 17.2
2019-Jun-17 22:50 080 17.2
2019-Jun-17 22:45 080 17.2
2019-Jun-17 22:40 080 17.2
2019-Jun-17 22:35 080 17.2
2019-Jun-17 22:31 080 17.8
2019-Jun-17 22:25 080 17.8
2019-Jun-17 22:20 080 17.8
2019-Jun-17 22:15 099 17.8
2019-Jun-17 22:10 100 17.8
2019-Jun-17 22:05 100 17.8
2019-Jun-17 22:00 100 17.8
2019-Jun-17 21:55 100 18.3
2019-Jun-17 21:50 100 18.3
2019-Jun-17 21:46 100 18.3
2019-Jun-17 21:40 100 18.3
2019-Jun-17 21:35 100 18.9
2019-Jun-17 21:30 100 18.9
2019-Jun-17 21:25 100 18.9
2019-Jun-17 21:20 100 18.9
2019-Jun-17 21:16 100 18.9
2019-Jun-17 21:10 100 18.9
2019-Jun-17 21:05 099 19.4
2019-Jun-17 21:01 099 19.4
2019-Jun-17 20:55 099 19.4
2019-Jun-17 20:50 100 19.4
2019-Jun-17 20:45 100 19.4
2019-Jun-17 20:40 100 19.4
2019-Jun-17 20:35 100 20.0
2019-Jun-17 20:30 100 20.0
2019-Jun-17 20:25 100 20.0
2019-Jun-17 20:20 099 20.6
2019-Jun-17 20:16 099 20.6
2019-Jun-17 20:10 100 20.6
2019-Jun-17 20:05 100 20.6
2019-Jun-17 20:00 099 20.6
2019-Jun-17 19:55 100 20.6
2019-Jun-17 19:50 106 21.1
2019-Jun-17 19:45 106 21.1
2019-Jun-17 19:40 115 21.1
2019-Jun-17 19:35 115 21.7
2019-Jun-17 19:30 115 21.7
2019-Jun-17 19:25 115 21.7
2019-Jun-17 19:20 115 22.2
2019-Jun-17 19:15 115 22.2
2019-Jun-17 19:10 115 22.8
2019-Jun-17 19:05 115 22.8
2019-Jun-17 19:00 115 23.3
2019-Jun-17 18:55 115 23.3
2019-Jun-17 18:45 115 23.3
2019-Jun-17 18:40 115 23.9
2019-Jun-17 18:35 115 23.9
2019-Jun-17 18:30 115 23.9